Orbital Elements at Epoch 2459200.5 (2020-Dec-17.0) TDB
Reference: JPL 16 (heliocentric ecliptic J2000)
Element | Value | Uncertainty (1-sigma) | Units |
e | .2733606948711785 | 5.2216e-08 | |
a | 2.618859545914495 | 1.5677e-08 | au |
q | 1.90296628067329 | 1.4067e-07 | au |
i | 2.533756011823268 | 6.0768e-06 | deg |
node | 299.0759022192314 | 0.00011908 | deg |
peri | 64.0181707340643 | 0.00011962 | deg |
M | 321.8374588941506 | 1.5059e-05 | deg |
tp | 2459364.597332652466 (2021-May-30.09733265) | 6.5952e-05 | TDB |
period | 1547.984962296787 4.24 | 1.39e-05 3.806e-08 | d yr |
n | .232560398691379 | 2.0883e-09 | deg/d |
Q | 3.334752811155701 | 1.9963e-08 | au |
|
| | Orbit Determination Parameters
Additional Information
|